KI7CSN-13 Weather Reports


time (UTC)temp
C
wind
direction
speed
KPH
gust
KPH
rain 1hr
cm
rain 24hr
cm
rain mn
cm
humidity
%
barometer
mb
20260502161749 21 209 12.9 16.1 0.00 0.00 0.00 20 985.7
20260502161249 21 340 0.0 11.3 0.00 0.00 0.00 20 985.7
20260502160749 21 142 0.0 17.7 0.00 0.00 0.00 20 985.7
20260502160249 21 333 0.0 19.3 0.00 0.00 0.00 20 985.7
20260502152249 18 333 8.0 17.7 0.00 0.00 0.00 22 985.6
20260502151749 18 352 9.7 20.9 0.00 0.00 0.00 22 985.6
20260502151249 18 358 0.0 12.9 0.00 0.00 0.00 23 985.4
20260502150749 18 309 0.0 14.5 0.00 0.00 0.00 23 985.4
20260502150249 17 358 0.0 16.1 0.00 0.00 0.00 23 985.4
20260502130749 14 345 8.0 17.7 0.00 0.00 0.00 27 984.7
20260502130249 14 5 6.4 14.5 0.00 0.00 0.00 27 984.6
20260502123749 13 334 8.0 14.5 0.00 0.00 0.00 28 984.3
20260502123249 13 11 8.0 11.3 0.00 0.00 0.00 28 984.2
20260502122749 13 358 6.4 14.5 0.00 0.00 0.00 28 984.2
20260502122249 13 59 3.2 14.5 0.00 0.00 0.00 28 984.2
20260502121749 13 8 4.8 11.3 0.00 0.00 0.00 28 984.2
20260502121249 13 330 6.4 9.7 0.00 0.00 0.00 29 984.2
20260502120749 13 25 1.6 9.7 0.00 0.00 0.00 29 984.2
20260502120249 13 14 8.0 12.9 0.00 0.00 0.00 28 984.1
20260502115749 13 345 0.0 4.8 0.00 0.00 0.00 29 984.2
20260502115249 13 331 0.0 0.0 0.00 0.00 0.00 29 984.2
20260502114749 13 331 0.0 0.0 0.00 0.00 0.00 29 984.2
20260502114249 13 331 0.0 0.0 0.00 0.00 0.00 29 984.3
20260502113749 12 331 0.0 0.0 0.00 0.00 0.00 29 984.2
20260502113249 12 331 0.0 0.0 0.00 0.00 0.00 29 984.2
20260502112749 12 331 0.0 0.0 0.00 0.00 0.00 29 984.3
20260502112249 12 331 0.0 0.0 0.00 0.00 0.00 29 984.3
20260502111749 12 331 0.0 0.0 0.00 0.00 0.00 29 984.3
20260502111249 12 331 0.0 0.0 0.00 0.00 0.00 29 984.3
20260502110749 12 331 0.0 0.0 0.00 0.00 0.00 29 984.3
20260502110249 13 331 0.0 0.0 0.00 0.00 0.00 29 984.3
20260502105749 13 331 0.0 0.0 0.00 0.00 0.00 29 984.3
20260502105249 13 331 0.0 6.4 0.00 0.00 0.00 28 984.3
20260502104749 13 104 0.0 0.0 0.00 0.00 0.00 29 984.3
20260502104249 13 104 0.0 0.0 0.00 0.00 0.00 29 984.3
20260502103749 13 104 0.0 6.4 0.00 0.00 0.00 28 984.3
20260502103249 13 40 0.0 8.0 0.00 0.00 0.00 27 984.3
20260502102749 13 312 0.0 6.4 0.00 0.00 0.00 28 984.3
20260502102249 13 350 4.8 8.0 0.00 0.00 0.00 29 984.3
20260502101749 13 319 0.0 4.8 0.00 0.00 0.00 28 984.4
20260502101249 13 315 3.2 4.8 0.00 0.00 0.00 28 984.4
20260502100749 13 310 0.0 4.8 0.00 0.00 0.00 28 984.3
20260502100249 13 312 0.0 3.2 0.00 0.00 0.00 29 984.4
20260502091249 13 219 0.0 0.0 0.00 0.00 0.00 29 984.6
20260502090750 13 219 0.0 0.0 0.00 0.00 0.00 29 984.6
20260502090250 13 219 0.0 0.0 0.00 0.00 0.00 29 984.7
20260502071250 17 358 16.1 27.4 0.00 0.00 0.00 21 984.8
20260502070750 17 336 16.1 25.7 0.00 0.00 0.00 22 984.8
20260502070250 16 338 11.3 17.7 0.00 0.00 0.00 21 984.7
20260502065750 17 333 6.4 19.3 0.00 0.00 0.00 22 984.7
20260502065250 17 358 12.9 19.3 0.00 0.00 0.00 22 984.6
20260502064750 17 307 9.7 14.5 0.00 0.00 0.00 22 984.6
20260502064250 17 357 11.3 14.5 0.00 0.00 0.00 22 984.6
20260502063750 17 358 9.7 14.5 0.00 0.00 0.00 21 984.4
20260502063250 17 323 9.7 16.1 0.00 0.00 0.00 22 984.6
20260502062750 17 345 9.7 19.3 0.00 0.00 0.00 22 984.4
20260502062250 17 337 17.7 20.9 0.00 0.00 0.00 20 984.3
20260502061750 17 305 17.7 19.3 0.00 0.00 0.00 21 984.3
20260502061250 17 343 12.9 17.7 0.00 0.00 0.00 21 984.3
20260502060750 17 313 11.3 19.3 0.00 0.00 0.00 21 984.2
20260502060250 17 337 11.3 16.1 0.00 0.00 0.00 20 984.2
20260502055750 17 347 11.3 14.5 0.00 0.00 0.00 21 984.1
20260502055250 17 16 11.3 14.5 0.00 0.00 0.00 20 984.1
20260502054750 17 324 9.7 16.1 0.00 0.00 0.00 20 984.1
20260502054250 18 344 6.4 14.5 0.00 0.00 0.00 20 984.0
20260502053750 18 352 9.7 19.3 0.00 0.00 0.00 20 984.0
20260502053250 18 351 11.3 17.7 0.00 0.00 0.00 20 984.0
20260502052750 18 322 14.5 22.5 0.00 0.00 0.00 20 984.0
20260502052250 18 347 9.7 19.3 0.00 0.00 0.00 20 984.0
20260502051750 18 331 9.7 22.5 0.00 0.00 0.00 20 983.9
20260502051250 18 303 11.3 20.9 0.00 0.00 0.00 20 983.9
20260502050750 18 348 11.3 20.9 0.00 0.00 0.00 20 983.8
20260502050250 19 350 11.3 29.0 0.00 0.00 0.00 18 983.8
20260502045750 19 320 19.3 25.7 0.00 0.00 0.00 18 983.9
20260502045250 19 338 14.5 22.5 0.00 0.00 0.00 18 983.9
20260502044750 19 16 9.7 30.6 0.00 0.00 0.00 18 983.9
20260502044250 19 333 14.5 29.0 0.00 0.00 0.00 18 983.8
20260502043750 19 333 19.3 24.1 0.00 0.00 0.00 18 983.8
20260502043250 19 319 14.5 29.0 0.00 0.00 0.00 18 983.8
20260502042750 19 330 14.5 20.9 0.00 0.00 0.00 18 983.8
20260502042250 19 303 8.0 24.1 0.00 0.00 0.00 19 983.8
20260502041750 19 7 12.9 27.4 0.00 0.00 0.00 19 983.7
20260502041250 18 327 9.7 12.9 0.00 0.00 0.00 20 983.7
20260502040750 18 320 12.9 20.9 0.00 0.00 0.00 20 983.5
20260502040250 18 334 12.9 17.7 0.00 0.00 0.00 20 983.5
20260502035750 18 336 8.0 16.1 0.00 0.00 0.00 20 983.4
20260502035250 18 319 9.7 19.3 0.00 0.00 0.00 20 983.3
20260502034750 19 344 11.3 16.1 0.00 0.00 0.00 20 983.3
20260502034250 19 358 9.7 19.3 0.00 0.00 0.00 20 983.3
20260502033750 18 250 9.7 17.7 0.00 0.00 0.00 20 983.2
20260502033250 18 299 9.7 12.9 0.00 0.00 0.00 20 983.2
20260502032750 19 326 9.7 14.5 0.00 0.00 0.00 20 983.2
20260502032250 19 341 11.3 17.7 0.00 0.00 0.00 20 983.1
20260502031750 19 331 12.9 16.1 0.00 0.00 0.00 20 983.1
20260502031250 19 307 6.4 14.5 0.00 0.00 0.00 20 983.1
20260502030750 19 219 3.2 19.3 0.00 0.00 0.00 20 983.0
20260502030250 20 331 8.0 22.5 0.00 0.00 0.00 20 983.0
20260502025750 20 323 14.5 17.7 0.00 0.00 0.00 20 983.0
20260502025250 20 322 14.5 24.1 0.00 0.00 0.00 20 983.0
20260502024750 20 307 14.5 19.3 0.00 0.00 0.00 20 983.0
20260502024250 20 326 14.5 22.5 0.00 0.00 0.00 20 982.9
20260502023750 20 313 17.7 30.6 0.00 0.00 0.00 20 983.0
20260502023250 20 320 14.5 25.7 0.00 0.00 0.00 20 982.9
20260502022750 20 286 12.9 25.7 0.00 0.00 0.00 20 982.9
20260502022250 20 329 17.7 25.7 0.00 0.00 0.00 20 982.9
20260502021750 20 313 14.5 25.7 0.00 0.00 0.00 20 982.9
20260502021250 20 330 14.5 25.7 0.00 0.00 0.00 20 982.9
20260502020750 20 327 22.5 27.4 0.00 0.00 0.00 20 982.8
20260502020250 20 15 12.9 20.9 0.00 0.00 0.00 20 982.8
20260502015750 21 303 6.4 33.8 0.00 0.00 0.00 19 982.8
20260502015250 21 25 16.1 24.1 0.00 0.00 0.00 19 982.6
20260502014750 21 326 17.7 27.4 0.00 0.00 0.00 18 982.8
20260502014250 21 279 11.3 29.0 0.00 0.00 0.00 18 982.6
20260502013750 21 307 16.1 35.4 0.00 0.00 0.00 18 982.6
20260502013250 22 268 9.7 38.6 0.00 0.00 0.00 18 982.6
20260502012750 22 324 11.3 37.0 0.00 0.00 0.00 18 982.5
20260502012250 22 310 17.7 37.0 0.00 0.00 0.00 18 982.6
20260502011750 22 313 19.3 37.0 0.00 0.00 0.00 17 982.5
20260502011250 22 293 4.8 32.2 0.00 0.00 0.00 16 982.5
20260502010750 22 358 14.5 30.6 0.00 0.00 0.00 17 982.5
20260502010250 22 324 22.5 41.8 0.00 0.00 0.00 16 982.5
20260502005750 22 310 22.5 32.2 0.00 0.00 0.00 17 982.5
20260502005251 22 319 25.7 40.2 0.00 0.00 0.00 18 982.6
20260502004750 23 194 6.4 38.6 0.00 0.00 0.00 18 982.4
20260502004250 23 247 17.7 32.2 0.00 0.00 0.00 18 982.4
20260502003751 23 247 11.3 37.0 0.00 0.00 0.00 17 982.3
20260502003251 23 307 22.5 35.4 0.00 0.00 0.00 16 982.4
20260502002750 23 333 29.0 40.2 0.00 0.00 0.00 16 982.4
20260502002251 23 15 11.3 32.2 0.00 0.00 0.00 18 982.4
20260502001751 23 320 14.5 41.8 0.00 0.00 0.00 18 982.3
20260502001251 23 338 22.5 48.3 0.00 0.00 0.00 18 982.3
20260502000751 23 341 22.5 41.8 0.00 0.00 0.00 18 982.3
20260502000250 23 315 19.3 38.6 0.00 0.00 0.00 18 982.3
20260501235751 23 331 17.7 35.4 0.00 0.00 0.00 16 982.3
20260501235251 24 291 19.3 40.2 0.00 0.00 0.00 16 982.4
20260501234751 24 344 22.5 33.8 0.00 0.00 0.00 16 982.3
20260501234251 23 333 25.7 45.1 0.00 0.00 0.00 16 982.3
20260501233751 25 307 16.1 40.2 0.00 0.00 0.00 16 982.2
20260501233251 25 345 14.5 30.6 0.00 0.00 0.00 17 982.1
20260501232751 23 306 25.7 43.5 0.00 0.00 0.00 17 982.2
20260501232251 25 9 11.3 29.0 0.00 0.00 0.00 16 982.1
20260501231751 24 262 17.7 32.2 0.00 0.00 0.00 17 982.0
20260501231251 25 272 11.3 24.1 0.00 0.00 0.00 16 982.1
20260501230751 24 324 8.0 27.4 0.00 0.00 0.00 18 982.0
20260501230251 26 264 8.0 20.9 0.00 0.00 0.00 16 982.0
20260501225751 25 312 19.3 22.5 0.00 0.00 0.00 16 982.1
20260501225251 25 246 4.8 27.4 0.00 0.00 0.00 12 982.1
20260501224751 25 234 9.7 33.8 0.00 0.00 0.00 13 982.0
20260501224251 25 302 6.4 19.3 0.00 0.00 0.00 13 982.0
20260501223751 26 262 12.9 22.5 0.00 0.00 0.00 12 982.1
20260501223251 26 258 9.7 24.1 0.00 0.00 0.00 12 982.1
20260501222751 26 265 11.3 16.1 0.00 0.00 0.00 13 982.1
20260501222251 26 282 8.0 32.2 0.00 0.00 0.00 13 982.2
20260501221751 25 300 9.7 29.0 0.00 0.00 0.00 13 982.2
20260501221251 25 323 14.5 35.4 0.00 0.00 0.00 14 982.2
20260501220751 25 234 11.3 29.0 0.00 0.00 0.00 13 982.2
20260501220251 26 337 14.5 16.1 0.00 0.00 0.00 13 982.2
20260501215751 26 14 9.7 37.0 0.00 0.00 0.00 13 982.4
20260501215251 25 330 32.2 35.4 0.00 0.00 0.00 14 982.4
20260501214751 26 29 8.0 24.1 0.00 0.00 0.00 12 982.4
20260501214251 25 278 4.8 29.0 0.00 0.00 0.00 13 982.5
20260501213751 25 326 14.5 33.8 0.00 0.00 0.00 14 982.5
20260501213251 25 40 11.3 30.6 0.00 0.00 0.00 17 982.8
20260501212751 25 331 30.6 32.2 0.00 0.00 0.00 17 982.8
20260501212251 24 326 12.9 45.1 0.00 0.00 0.00 17 982.8
20260501211751 25 21 12.9 33.8 0.00 0.00 0.00 17 982.9
20260501211251 25 331 11.3 29.0 0.00 0.00 0.00 18 982.8
20260501210751 26 40 9.7 38.6 0.00 0.00 0.00 16 982.9
20260501210251 25 288 11.3 35.4 0.00 0.00 0.00 17 982.9
20260501205751 26 322 30.6 32.2 0.00 0.00 0.00 16 983.0
20260501205251 25 310 6.4 19.3 0.00 0.00 0.00 16 982.9
20260501204751 25 278 9.7 22.5 0.00 0.00 0.00 17 982.9
20260501204251 25 253 6.4 24.1 0.00 0.00 0.00 18 982.9
20260501203751 25 330 17.7 35.4 0.00 0.00 0.00 17 983.0
20260501203251 26 282 8.0 37.0 0.00 0.00 0.00 18 983.0
20260501202751 25 341 6.4 35.4 0.00 0.00 0.00 18 982.9
20260501202251 25 323 9.7 27.4 0.00 0.00 0.00 18 982.9
20260501201751 26 270 12.9 32.2 0.00 0.00 0.00 17 983.0
20260501201251 25 233 12.9 30.6 0.00 0.00 0.00 18 982.9
20260501200751 26 261 6.4 29.0 0.00 0.00 0.00 18 982.8
20260501200251 25 30 8.0 16.1 0.00 0.00 0.00 17 982.9
20260501195751 25 267 6.4 33.8 0.00 0.00 0.00 18 982.9
20260501195251 25 324 16.1 16.1 0.00 0.00 0.00 18 982.8
20260501194751 25 220 6.4 24.1 0.00 0.00 0.00 18 982.8
20260501194251 25 191 4.8 24.1 0.00 0.00 0.00 18 982.9
20260501193751 25 327 8.0 19.3 0.00 0.00 0.00 18 982.9
20260501193251 25 284 8.0 22.5 0.00 0.00 0.00 18 982.8
20260501192751 25 281 9.7 35.4 0.00 0.00 0.00 18 982.9
20260501192251 25 334 27.4 33.8 0.00 0.00 0.00 18 982.9
20260501191751 23 247 12.9 29.0 0.00 0.00 0.00 20 983.0
20260501191251 23 262 20.9 24.1 0.00 0.00 0.00 18 983.0
20260501190751 24 247 9.7 27.4 0.00 0.00 0.00 18 983.0
20260501190251 23 236 6.4 16.1 0.00 0.00 0.00 18 983.0
20260501185751 23 303 6.4 27.4 0.00 0.00 0.00 19 983.1
20260501185251 22 4 9.7 22.5 0.00 0.00 0.00 19 983.2
20260501184751 23 331 17.7 30.6 0.00 0.00 0.00 18 983.1
20260501184251 23 358 8.0 16.1 0.00 0.00 0.00 18 983.2
20260501183751 23 312 9.7 16.1 0.00 0.00 0.00 18 983.2
20260501183251 25 303 4.8 20.9 0.00 0.00 0.00 17 983.3
20260501182751 23 29 3.2 22.5 0.00 0.00 0.00 19 983.2
20260501182251 23 303 17.7 27.4 0.00 0.00 0.00 18 983.3
20260501181751 24 322 16.1 20.9 0.00 0.00 0.00 18 983.3
20260501181251 23 223 0.0 8.0 0.00 0.00 0.00 18 983.4
20260501180751 24 21 3.2 12.9 0.00 0.00 0.00 18 983.4
20260501180251 23 36 9.7 14.5 0.00 0.00 0.00 18 983.4
20260501175751 23 149 6.4 14.5 0.00 0.00 0.00 18 983.4
20260501175251 23 358 11.3 19.3 0.00 0.00 0.00 19 983.5
20260501174751 23 25 16.1 24.1 0.00 0.00 0.00 18 983.5
20260501174251 23 4 11.3 27.4 0.00 0.00 0.00 18 983.4
20260501173751 23 326 19.3 24.1 0.00 0.00 0.00 18 983.4
20260501173251 22 358 0.0 14.5 0.00 0.00 0.00 20 983.3
20260501172751 23 341 9.7 11.3 0.00 0.00 0.00 19 983.3
20260501172251 22 268 0.0 17.7 0.00 0.00 0.00 20 983.4
20260501171751 22 300 11.3 20.9 0.00 0.00 0.00 20 983.4
20260501171251 23 331 8.0 11.3 0.00 0.00 0.00 20 983.4
20260501170751 22 47 3.2 16.1 0.00 0.00 0.00 17 983.4
20260501170251 21 293 8.0 20.9 0.00 0.00 0.00 17 983.3
20260501165751 22 250 3.2 12.9 0.00 0.00 0.00 17 983.4
20260501165251 22 40 3.2 12.9 0.00 0.00 0.00 17 983.3
20260501164751 21 25 6.4 32.2 0.00 0.00 0.00 18 983.4
20260501164251 21 272 14.5 14.5 0.00 0.00 0.00 18 983.2
20260501163751 21 215 6.4 11.3 0.00 0.00 0.00 18 983.3
20260501163251 21 15 6.4 19.3 0.00 0.00 0.00 18 983.3
20260501162751 21 248 4.8 16.1 0.00 0.00 0.00 19 983.2
20260501162251 21 329 8.0 16.1 0.00 0.00 0.00 20 983.2